Gillette, WY

9:56 PM MDT on July 26, 2017 (GMT -0600)
Gillette-Campbell County

Weather History for KGCC - April, 2014

Change the Weather History Date:

Wednesday, April 9, 2014

  Actual Average Record
Temperature  
Mean Temperature 57 °F 40 °F  
Max Temperature 73 °F 54 °F 78 °F (1977)
Min Temperature 40 °F 27 °F 5 °F (1973)
Degree Days  
Heating Degree Days 8 24  
Month to date heating degree days 214 229  
Since 1 July heating degree days 6823 6576  
Cooling Degree Days 0 0  
Month to date cooling degree days 0 0  
Year to date cooling degree days 0 0  
Growing Degree Days 6 (Base 50)    
Moisture  
Dew Point 30 °F    
Average Humidity 52    
Maximum Humidity 85    
Minimum Humidity 18    
Precipitation  
Precipitation T in 0.04 in 0.82 in (1950)
Month to date precipitation 0.04 0.28  
Year to date precipitation 2.41 2.02  
Sea Level Pressure  
Sea Level Pressure 29.78 in    
Wind  
Wind Speed 14 mph (WNW)    
Max Wind Speed 39 mph    
Max Gust Speed 51 mph    
Visibility 10 miles    
Events      
T = Trace of Precipitation, MM = Missing Value Source: NWS Daily Summary

Daily Weather History Graph

Daily Weather History Graph

Search for Another Location

Airport or City:

Trip Planner

Search our weather history database for the weather conditions in past years. The results will help you decide how hot, cold, wet, or windy it might be!

Date:

Astronomy

Apr. 09, 2014 Rise Set
Actual Time 6:28 AM MDT 7:39 PM MDT
Civil Twilight 5:58 AM MDT 8:09 PM MDT
Nautical Twilight 5:23 AM MDT 8:45 PM MDT
Astronomical Twilight 4:45 AM MDT 9:23 PM MDT
Moon 2:18 PM MDT (4/9) 3:31 AM MDT (4/9)
Length of Visible Light 14h 10m
Length of Day
13h 10m
Waxing Gibbous, 72% of the Moon is Illuminated
Apr 9
Waxing Gibbous
Apr 15
Full
Apr 22
Last Quarter
Apr 29
New
May 6
First Quarter

Hourly Weather History & Observations

Time (MDT) Temp. Windchill Dew Point Humidity Pressure Visibility Wind Dir Wind Speed Gust Speed Precip Events Conditions
12:53 AM 46.9 °F - 28.0 °F 48% 29.86 in 10.0 mi WSW 4.6 mph - N/A   Clear
1:53 AM 50.0 °F - 27.0 °F 41% 29.83 in 10.0 mi SW 13.8 mph - N/A   Clear
2:53 AM 50.0 °F - 27.0 °F 41% 29.82 in 10.0 mi SW 15.0 mph - N/A   Clear
3:53 AM 48.9 °F - 27.0 °F 43% 29.80 in 10.0 mi SW 13.8 mph - N/A   Clear
4:53 AM 48.9 °F - 26.1 °F 41% 29.78 in 10.0 mi SW 15.0 mph - N/A   Clear
5:53 AM 48.9 °F - 26.1 °F 41% 29.78 in 10.0 mi SW 10.4 mph - N/A   Clear
6:53 AM 51.1 °F - 26.1 °F 38% 29.78 in 10.0 mi SW 17.3 mph - N/A   Clear
7:53 AM 53.1 °F - 26.1 °F 35% 29.81 in 10.0 mi WSW 20.7 mph - N/A   Clear
8:53 AM 55.9 °F - 28.0 °F 34% 29.79 in 10.0 mi WSW 18.4 mph - N/A   Clear
9:53 AM 57.9 °F - 28.9 °F 33% 29.79 in 10.0 mi WSW 19.6 mph - N/A   Clear
10:53 AM 59.0 °F - 30.0 °F 33% 29.78 in 10.0 mi WSW 15.0 mph - N/A   Clear
11:53 AM 64.0 °F - 28.9 °F 27% 29.75 in 10.0 mi WSW 11.5 mph - N/A   Clear
12:53 PM 69.1 °F - 28.0 °F 22% 29.70 in 10.0 mi WSW 17.3 mph 24.2 mph N/A   Clear
1:53 PM 70.0 °F - 24.1 °F 18% 29.65 in 10.0 mi WSW 17.3 mph 26.5 mph N/A   Scattered Clouds
2:53 PM 69.1 °F - 25.0 °F 19% 29.62 in 10.0 mi WNW 16.1 mph 31.1 mph N/A   Overcast
3:04 PM 66.2 °F - 24.8 °F 21% 29.72 in 10.0 mi North 17.3 mph 31.1 mph N/A   Overcast
3:12 PM 69.8 °F - 24.8 °F 18% 29.71 in 10.0 mi NW 10.4 mph 27.6 mph N/A   Mostly Cloudy
3:53 PM 68.0 °F - 26.1 °F 21% 29.63 in 10.0 mi NW 17.3 mph 25.3 mph N/A   Mostly Cloudy
4:53 PM 60.1 °F - 35.1 °F 39% 29.69 in 10.0 mi North 29.9 mph 36.8 mph N/A   Overcast
5:53 PM 57.0 °F - 36.0 °F 45% 29.77 in 10.0 mi North 26.5 mph 32.2 mph N/A   Mostly Cloudy
6:53 PM 53.1 °F - 35.1 °F 50% 29.79 in 10.0 mi North 21.9 mph 28.8 mph N/A   Mostly Cloudy
7:53 PM 48.9 °F - 37.0 °F 64% 29.80 in 10.0 mi NNE 9.2 mph - N/A   Overcast
8:53 PM 45.0 °F 42.6 °F 39.0 °F 80% 29.86 in 10.0 mi North 4.6 mph - 0.00 in   Overcast
9:53 PM 44.1 °F 41.5 °F 37.0 °F 76% 29.88 in 10.0 mi North 4.6 mph - 0.00 in   Overcast
10:53 PM 43.0 °F 41.3 °F 35.1 °F 74% 29.88 in 10.0 mi North 3.5 mph - N/A   Overcast
11:53 PM 39.9 °F 37.8 °F 35.1 °F 83% 29.91 in 10.0 mi NNW 3.5 mph - N/A   Overcast